Palma de Mallorca, Spain

4:18 PM CET on November 22, 2017 (GMT +0100)
Palma De Mallorca

Weather History for LEPA - April, 2013

Change the Weather History Date:

Saturday, April 13, 2013

  Actual Average Record
Temperature  
Mean Temperature 57 °F -  
Max Temperature 70 °F 69 °F 112 °F (2015)
Min Temperature 44 °F 49 °F 35 °F (1998)
Degree Days  
Heating Degree Days 8    
Growing Degree Days 7 (Base 50)    
Moisture  
Dew Point 50 °F    
Average Humidity 75    
Maximum Humidity 94    
Minimum Humidity 34    
Precipitation  
Precipitation 0.00 in 0.05 in - ()
Sea Level Pressure  
Sea Level Pressure 30.16 in    
Wind  
Wind Speed 3 mph ()    
Max Wind Speed 14 mph    
Max Gust Speed -    
Visibility 13.5 miles    
Events      
Averages and records for this station are not official NWS values.
T = Trace of Precipitation, MM = Missing Value Source: Averaged Metar Reports

Daily Weather History Graph

Daily Weather History Graph

Search for Another Location

Airport or City:

Trip Planner

Search our weather history database for the weather conditions in past years. The results will help you decide how hot, cold, wet, or windy it might be!

Date:

Astronomy

Apr. 13, 2013 Rise Set
Actual Time 7:14 AM CEST 8:25 PM CEST
Civil Twilight 6:47 AM CEST 8:52 PM CEST
Nautical Twilight 6:14 AM CEST 9:25 PM CEST
Astronomical Twilight 5:39 AM CEST 10:00 PM CEST
Moon 8:55 AM CEST (4/13) 11:34 PM CEST (4/13)
Length of Visible Light 14h 05m
Length of Day
13h 10m
Waxing Crescent, 9% of the Moon is Illuminated
Apr 13
Waxing Crescent
Apr 18
First Quarter
Apr 25
Full
May 2
Last Quarter
May 10
New

Hourly Weather History & Observations

Time (CEST) Temp. Dew Point Humidity Pressure Visibility Wind Dir Wind Speed Gust Speed Precip Events Conditions
12:00 AM 51.8 °F 46.4 °F 82% 30.09 in - Calm Calm - N/A   Clear
12:30 AM 50.0 °F 46.4 °F 87% 30.09 in - Variable 1.2 mph - N/A   Clear
1:00 AM 50.0 °F 46.4 °F 87% 30.09 in - Calm Calm - N/A   Clear
1:30 AM 50.0 °F 46.4 °F 87% 30.09 in - Calm Calm - N/A   Clear
2:00 AM 47 °F 44 °F 83% 30.12 in 11 mi Calm Calm - -   Clear
2:00 AM 48.2 °F 46.4 °F 93% 30.09 in - ENE 2.3 mph - N/A   Clear
2:30 AM 50.0 °F 46.4 °F 87% 30.09 in - Calm Calm - N/A   Clear
3:00 AM 48.2 °F 46.4 °F 93% 30.09 in - Calm Calm - N/A   Clear
3:30 AM 48.2 °F 46.4 °F 93% 30.09 in - Calm Calm - N/A   Clear
4:00 AM 48.2 °F 46.4 °F 93% 30.09 in - NE 2.3 mph - N/A   Clear
4:30 AM 50.0 °F 48.2 °F 94% 30.09 in - Calm Calm - N/A   Clear
5:00 AM 48.2 °F 44.6 °F 87% 30.09 in - South 1.2 mph - N/A   Clear
5:30 AM 48.2 °F 46.4 °F 93% 30.09 in - NNE 3.5 mph - N/A   Clear
6:00 AM 48.2 °F 46.4 °F 93% 30.12 in - Calm Calm - N/A   Clear
6:30 AM 46.4 °F 44.6 °F 93% 30.12 in - Calm Calm - N/A   Clear
7:00 AM 46.4 °F 44.6 °F 93% 30.12 in - Calm Calm - N/A   Clear
7:30 AM 46.4 °F 44.6 °F 93% 30.12 in - Variable 2.3 mph - N/A   Clear
8:00 AM 46 °F 44 °F 89% 30.16 in 12 mi ENE 2.3 mph - -   Clear
8:00 AM 48.2 °F 46.4 °F 93% 30.15 in - ENE 5.8 mph - N/A   Clear
8:30 AM 50.0 °F 48.2 °F 94% 30.15 in - NE 5.8 mph - N/A   Clear
9:00 AM 53.6 °F 48.2 °F 82% 30.18 in - ENE 6.9 mph - N/A   Clear
9:30 AM 55.4 °F 51.8 °F 88% 30.18 in - ENE 3.5 mph - N/A   Clear
10:00 AM 59.0 °F 51.8 °F 77% 30.18 in - East 3.5 mph - N/A   Clear
10:30 AM 62.6 °F 51.8 °F 68% 30.18 in - NE 3.5 mph - N/A   Clear
11:00 AM 66.2 °F 53.6 °F 64% 30.21 in - Calm Calm - N/A   Clear
11:30 AM 68.0 °F 51.8 °F 56% 30.21 in - SW 3.5 mph - N/A   Clear
12:00 PM 66.2 °F 55.4 °F 68% 30.21 in - WSW 6.9 mph - N/A   Clear
12:30 PM 68.0 °F 55.4 °F 64% 30.21 in - WSW 8.1 mph - N/A   Clear
1:00 PM 68.0 °F 51.8 °F 56% 30.21 in - SW 9.2 mph - N/A   Clear
1:30 PM 69.8 °F 51.8 °F 53% 30.21 in - WSW 9.2 mph - N/A   Clear
2:00 PM 70 °F 48 °F 34% 30.21 in 19 mi SW 11.5 mph - -   Clear
2:00 PM 69.8 °F 51.8 °F 53% 30.21 in - SW 10.4 mph - N/A   Clear
2:30 PM 69.8 °F 51.8 °F 53% 30.18 in - WSW 11.5 mph - N/A   Clear
3:00 PM 69.8 °F 51.8 °F 53% 30.18 in - WSW 11.5 mph - N/A   Clear
3:30 PM 69.8 °F 53.6 °F 56% 30.18 in - WSW 10.4 mph - N/A   Clear
4:00 PM 69.8 °F 51.8 °F 53% 30.18 in - WSW 10.4 mph - N/A   Clear
4:30 PM 69.8 °F 51.8 °F 53% 30.18 in - WSW 11.5 mph - N/A   Clear
5:00 PM 68.0 °F 53.6 °F 60% 30.18 in - WSW 11.5 mph - N/A   Clear
5:30 PM 68.0 °F 55.4 °F 64% 30.18 in - SW 13.8 mph - N/A   Clear
6:00 PM 68.0 °F 53.6 °F 60% 30.18 in - SW 11.5 mph - N/A   Clear
6:30 PM 66.2 °F 55.4 °F 68% 30.18 in - WSW 11.5 mph - N/A   Clear
7:00 PM 66.2 °F 55.4 °F 68% 30.18 in - WSW 10.4 mph - N/A   Clear
7:30 PM 64.4 °F 53.6 °F 68% 30.18 in - WSW 6.9 mph - N/A   Clear
8:00 PM 64 °F 48 °F 46% 30.21 in 12 mi Calm Calm - -   Clear
8:00 PM 64.4 °F 51.8 °F 64% 30.18 in - Variable 1.2 mph - N/A   Clear
8:30 PM 62.6 °F 53.6 °F 72% 30.21 in - Calm Calm - N/A   Clear
9:00 PM 59.0 °F 51.8 °F 77% 30.21 in - Calm Calm - N/A   Clear
9:30 PM 57.2 °F 50.0 °F 77% 30.21 in - Calm Calm - N/A   Clear
10:00 PM 55.4 °F 50.0 °F 82% 30.24 in - Variable 1.2 mph - N/A   Clear
10:30 PM 55.4 °F 48.2 °F 77% 30.24 in - South 2.3 mph - N/A   Clear
11:00 PM 53.6 °F 48.2 °F 82% 30.24 in - NNE 3.5 mph - N/A   Clear
11:30 PM 51.8 °F 48.2 °F 88% 30.24 in - NE 2.3 mph - N/A   Clear